Wind_Speed
10 8 8 6 7 11 19 14 6 2 5 4 5 5 8 9 11 6 17 19 24 27 21 18 16 17 24 28 23 18 17 16 16 15 14 13 12 10 10 12 14 14 16 15 13 12 13 14 15
9 8 6 2 14 19 22 3 3 2 3 7 10 9 9 7 9 7 16 23 23 24 26 21 19 19 24 29 29 25 23 21 20 19 16 13 12 11 10 11 12 14 14 13 13 14 15 16 17
8 6 5 10 17 21 22 9 3 4 9 7 8 8 11 11 17 21 18 19 22 23 22 22 18 17 23 31 31 30 29 25 26 24 19 15 14 12 10 10 12 13 13 13 13 14 16 18 18
8 5 8 13 17 21 19 7 6 7 8 9 6 10 10 14 15 20 20 20 21 21 19 16 14 15 20 24 28 33 37 19 31 27 22 17 15 11 10 11 13 14 14 12 14 16 17 18 17
10 8 17 22 23 22 13 8 9 10 9 9 7 10 15 19 19 22 21 23 22 21 16 14 15 17 18 24 28 28 34 28 31 28 23 20 15 15 12 13 16 16 14 14 16 16 16 17 17
12 8 17 21 22 20 5 9 7 9 9 11 13 13 10 21 21 25 23 22 19 19 17 15 16 17 17 23 28 24 33 32 33 31 26 20 17 18 16 15 17 17 15 16 17 18 17 17 17
19 17 24 24 22 21 15 10 9 8 10 11 12 8 11 19 18 24 24 24 18 15 19 21 19 17 19 20 23 24 22 31 35 30 28 22 19 18 14 14 17 18 18 19 19 19 18 18 17
18 17 24 23 22 23 14 9 9 9 11 14 14 14 11 19 22 24 25 24 21 21 22 22 20 17 19 19 22 19 18 30 27 31 28 24 24 23 19 16 17 20 21 22 23 20 19 17 16
18 24 29 23 20 18 11 12 9 13 14 14 13 16 19 20 21 24 26 22 20 23 18 17 16 15 17 18 19 15 14 17 22 31 30 30 29 27 23 23 20 23 23 24 22 22 19 18 17
24 29 27 21 20 17 12 13 12 12 15 14 14 15 19 20 22 25 27 20 19 17 7 7 9 12 12 15 18 17 15 16 16 31 29 33 28 28 29 23 23 24 25 25 23 22 21 20 17
25 35 25 24 23 14 16 17 14 15 16 12 11 17 17 19 22 23 20 18 15 11 5 6 7 10 11 15 17 19 14 18 19 28 28 34 26 17 25 28 26 26 27 25 24 23 21 18 17
27 30 28 27 23 23 19 17 19 19 21 17 16 23 26 27 22 21 15 16 11 7 6 7 11 13 15 19 21 23 22 24 28 25 37 38 29 14 24 32 23 25 25 24 24 23 21 20 18
27 28 27 29 27 24 22 23 23 25 22 22 19 24 23 18 18 16 16 13 14 11 11 10 11 16 17 19 19 23 31 37 36 36 40 32 30 23 29 29 28 25 27 26 25 24 23 21 19
24 25 29 29 28 27 25 25 24 27 23 22 19 22 22 18 15 14 17 15 15 13 11 14 13 14 16 15 12 14 17 19 23 32 39 28 25 26 30 36 32 28 26 26 26 25 23 22 19
24 30 28 28 26 24 24 29 29 28 22 23 22 21 21 16 15 15 18 16 18 14 12 15 15 13 13 13 9 4 9 9 13 34 35 28 25 24 32 41 31 28 28 28 27 24 23 22 20
24 23 30 30 27 28 24 31 24 22 19 19 20 17 22 16 14 15 15 16 20 12 12 12 15 15 13 15 13 4 7 7 19 22 33 30 33 30 35 41 31 30 30 30 29 25 24 22 21
23 30 31 27 24 27 26 29 23 15 12 14 15 16 18 16 13 12 14 14 15 11 10 12 12 16 14 16 16 12 6 6 5 16 26 37 32 37 35 39 35 31 32 32 29 26 25 22 21
29 29 29 29 25 25 24 24 22 17 15 17 15 17 17 19 17 13 12 13 13 12 10 13 14 13 12 16 18 16 13 9 9 17 28 30 35 33 35 36 35 34 31 31 31 28 25 21 20
30 28 31 31 23 24 28 21 21 22 19 21 16 14 18 20 17 20 13 15 14 14 11 12 14 13 10 18 20 16 18 13 15 13 21 23 22 23 41 35 34 35 34 25 28 27 24 24 24
34 35 35 34 23 13 21 20 21 21 23 24 24 21 19 21 20 22 15 14 16 14 12 11 13 10 8 15 18 17 16 16 15 14 19 18 22 25 39 35 36 34 32 34 31 32 29 27 25
35 34 34 38 29 23 23 24 25 25 25 25 26 24 19 22 23 25 19 15 16 16 12 11 11 9 5 12 19 21 19 22 19 19 19 24 26 25 37 43 39 39 37 40 36 33 31 28 26
35 32 34 33 27 27 24 20 24 22 27 30 26 26 25 23 23 24 25 16 16 16 12 10 9 7 4 4 12 16 20 21 22 22 18 22 24 25 34 43 40 40 39 40 33 31 30 30 28
38 30 28 26 31 28 29 23 23 14 17 16 20 21 24 24 23 24 28 16 16 16 12 11 9 7 4 3 7 11 15 17 18 23 25 22 23 30 39 42 47 45 46 42 34 36 37 36 35
28 30 29 28 30 23 29 26 25 25 21 15 15 15 18 23 20 24 26 19 17 16 13 12 11 10 6 4 6 8 9 13 16 23 23 26 28 29 35 32 35 48 48 47 42 43 42 42 41
24 21 5 9 18 13 23 23 29 17 19 9 13 11 11 17 20 23 26 24 18 16 11 13 13 12 10 7 6 8 9 8 10 16 24 30 30 32 35 34 32 41 53 49 51 48 47 47 47
12 27 9 6 7 14 28 16 30 17 20 13 5 12 12 15 17 16 23 28 22 18 14 15 14 15 12 11 9 8 7 6 8 9 16 25 27 28 28 31 26 36 50 55 54 51 50 49 49
17 26 34 30 16 8 12 28 7 16 18 17 10 7 10 17 14 16 20 27 22 22 18 16 16 17 16 14 12 10 8 6 4 5 7 10 18 26 28 27 32 24 45 53 55 51 53 52 48
28 11 19 11 5 6 6 7 11 14 14 13 12 8 11 9 7 9 11 20 24 22 20 19 20 20 19 18 16 14 12 11 10 8 6 5 7 13 20 23 29 26 28 35 44 51 46 42 45
29 28 13 5 14 3 1 8 4 8 13 14 10 15 9 9 3 10 8 17 25 22 21 19 23 24 24 22 20 18 17 15 14 13 12 11 11 11 12 13 21 27 27 30 34 38 38 38 41
24 27 25 16 6 15 12 5 7 19 13 8 10 10 8 9 5 3 9 7 19 21 21 23 27 28 27 26 24 22 21 20 19 17 17 17 17 18 18 19 19 22 23 27 30 33 39 39 46
Wind_Direction
307 318 317 358 260 247 269 271 162 327 304 207 273 286 273 294 306 315 294 277 294 292 287 281 288 249 231 219 209 200 199 204 207 207 201 204 195 188 187 190 189 193 197 182 177 171 166 163 156
301 299 342 301 248 281 285 94 355 247 210 267 295 302 278 275 276 238 286 299 292 286 283 267 271 274 238 228 220 213 211 209 208 203 202 215 204 196 196 188 184 185 201 177 172 164 161 155 155
285 288 267 249 253 254 283 17 281 291 266 277 278 286 291 255 271 292 296 294 283 277 276 270 263 271 248 239 238 229 213 214 209 202 200 213 211 205 200 194 180 179 187 178 168 161 161 158 159
263 295 260 254 262 277 295 278 326 277 277 264 281 279 288 269 282 302 305 306 292 278 272 264 261 256 248 245 259 246 241 200 208 200 202 204 210 207 210 202 179 180 187 181 166 165 167 161 160
245 215 252 261 268 263 259 255 273 270 264 259 282 279 291 283 295 301 318 315 310 289 281 264 261 258 258 238 271 270 281 234 201 203 205 198 206 222 212 205 187 185 187 180 171 167 171 165 168
240 248 257 265 271 307 239 257 253 260 258 269 278 275 279 291 290 298 310 317 308 292 280 275 267 260 262 257 273 264 261 248 184 198 198 205 199 197 200 210 193 182 189 179 178 170 174 173 171
228 238 252 263 279 288 291 238 216 254 255 259 279 289 296 280 287 307 308 316 302 295 284 272 268 268 263 264 262 268 288 222 201 198 200 204 197 202 184 202 197 183 182 182 185 171 174 177 170
235 247 259 262 274 280 289 237 233 253 263 262 272 268 263 275 300 312 308 314 303 296 285 270 267 262 263 259 259 272 275 240 187 193 197 199 201 204 192 204 203 188 183 182 181 171 178 174 172
235 249 254 257 260 285 249 257 261 241 268 259 269 264 258 281 303 312 310 313 305 306 286 268 265 268 252 253 257 272 274 264 184 190 199 195 206 205 209 198 208 198 186 182 172 173 174 179 176
230 240 249 255 265 288 276 276 245 258 269 277 279 272 267 284 297 306 310 319 320 316 303 275 266 262 259 253 254 264 244 272 211 182 191 190 214 212 224 184 199 204 190 181 171 174 177 181 180
235 241 250 255 263 297 262 262 256 264 257 269 277 251 286 282 298 302 305 319 320 309 310 296 277 268 264 255 267 253 256 240 242 196 226 203 207 223 202 180 190 193 182 175 177 178 181 179 185
244 247 254 262 269 267 273 264 259 258 267 268 277 272 269 269 292 299 298 306 318 315 309 295 282 272 263 261 264 263 258 242 242 246 199 205 209 191 207 183 195 188 185 178 181 184 182 183 191
243 252 255 261 263 267 261 261 264 257 258 266 266 272 276 272 290 288 289 288 301 302 303 297 293 287 279 270 263 261 257 252 246 241 204 198 221 234 209 191 195 190 192 180 189 189 189 189 191
249 256 258 259 258 258 260 262 263 264 265 264 262 256 267 272 281 265 287 277 291 299 303 300 300 293 292 282 247 270 232 228 225 219 217 228 228 236 207 189 189 191 188 187 195 196 197 192 188
256 262 260 252 251 259 256 258 257 270 265 255 248 253 260 252 269 274 282 283 280 286 296 297 301 291 289 266 254 298 175 195 223 197 200 223 220 233 219 202 182 187 188 195 198 200 197 193 188
248 258 260 251 253 255 247 257 261 269 255 236 239 237 250 240 267 273 280 290 288 284 281 294 302 296 288 248 199 165 119 162 185 223 211 225 222 207 191 190 182 191 195 198 203 200 198 196 196
244 253 254 262 250 248 236 249 257 241 231 233 239 235 241 236 264 273 283 297 292 296 290 293 297 299 289 241 207 219 178 167 218 204 198 194 202 195 195 182 180 193 199 202 205 203 203 199 203
235 242 252 256 256 242 232 242 246 238 242 238 231 239 235 243 247 257 280 299 295 304 299 300 305 306 291 214 201 200 199 205 197 186 192 194 203 211 219 188 182 194 202 208 206 205 208 200 207
247 256 262 262 251 245 233 234 247 249 251 242 236 230 238 241 248 257 263 286 295 300 305 305 308 313 282 221 209 204 201 200 200 191 198 197 210 220 207 188 191 202 202 216 208 203 207 207 209
246 249 250 263 255 259 252 251 251 252 249 246 246 246 234 237 235 252 255 275 285 292 297 302 306 323 304 215 215 213 187 202 212 206 201 217 227 223 194 192 200 203 202 210 212 206 209 209 213
247 241 245 254 257 256 256 255 255 251 248 245 246 240 244 236 237 237 258 261 276 283 285 294 303 320 299 210 210 212 216 208 208 207 213 216 222 215 199 197 199 204 207 214 215 216 211 213 210
255 239 246 255 253 261 248 257 257 258 249 246 234 238 233 232 237 238 258 251 268 270 275 275 274 299 290 208 213 220 234 219 214 226 230 219 225 219 203 203 204 206 215 220 217 215 215 216 215
256 248 266 250 254 255 253 263 258 252 258 262 220 231 232 231 223 234 248 253 254 259 269 263 260 268 270 206 195 213 209 219 229 220 226 221 224 220 202 208 209 213 218 219 219 217 218 221 221
250 252 261 254 258 251 239 247 253 249 253 241 225 230 226 228 220 225 243 247 243 255 262 252 246 251 252 229 202 214 212 220 233 226 228 230 231 238 230 232 227 216 218 223 220 225 222 228 228
251 230 250 242 236 244 235 243 242 242 253 217 189 203 220 219 225 218 231 238 241 256 258 251 238 235 237 236 204 212 211 217 219 228 225 228 235 235 240 241 243 230 218 224 226 227 228 231 235
262 206 214 209 243 231 230 237 241 224 219 206 232 213 209 208 203 219 233 246 241 253 244 244 239 237 235 234 228 211 214 213 217 219 226 235 240 245 241 239 242 239 220 222 228 230 232 239 242
256 242 222 257 298 285 246 225 224 204 207 218 199 216 199 204 242 239 227 243 256 246 246 241 241 238 234 237 238 237 233 234 214 214 228 234 235 238 240 238 239 243 231 226 231 234 235 239 242
229 231 232 228 242 236 246 257 180 179 176 185 196 205 186 197 211 204 249 246 259 244 246 240 238 238 241 232 239 241 238 238 240 238 231 228 231 234 232 238 235 233 226 238 245 245 239 246 242
219 231 232 220 243 288 244 216 240 172 172 179 135 168 149 183 235 280 238 243 249 247 241 246 242 242 242 241 235 239 245 244 242 248 250 245 241 231 236 241 240 240 241 235 239 247 246 245 250
229 225 222 225 230 247 258 300 116 174 167 176 153 157 145 153 211 100 325 247 242 259 252 254 246 242 242 243 242 243 246 249 252 254 254 254 250 249 246 239 238 244 244 244 244 245 247 245 247
Height
3130 3130 3130 3128 3135 3129 3119 3117 3113 3116 3120 3120 3121 3122 3123 3123 3122 3123 3116 3117 3116 3112 3116 3115 3115 3115 3116 3118 3119 3120 3121 3123 3126 3128 3130 3132 3132 3133 3135 3137 3139 3142 3144 3145 3147 3150 3151 3154 3156
3128 3128 3129 3130 3131 3125 3115 3116 3116 3117 3118 3118 3120 3120 3121 3122 3118 3119 3115 3115 3114 3111 3110 3112 3112 3112 3114 3116 3114 3115 3116 3120 3124 3127 3129 3130 3131 3133 3134 3136 3138 3140 3144 3145 3148 3149 3152 3154 3156
3126 3127 3129 3129 3126 3121 3116 3115 3116 3117 3116 3118 3120 3119 3118 3117 3115 3116 3115 3112 3110 3107 3107 3108 3108 3109 3110 3112 3115 3113 3112 3115 3120 3124 3127 3128 3129 3132 3134 3135 3137 3140 3143 3145 3147 3150 3152 3154 3156
3125 3126 3127 3124 3121 3117 3114 3114 3115 3116 3117 3116 3117 3118 3116 3113 3112 3112 3111 3109 3105 3103 3103 3104 3105 3106 3108 3110 3111 3113 3104 3095 3110 3120 3124 3127 3128 3131 3133 3135 3136 3139 3143 3146 3148 3150 3152 3154 3156
3122 3123 3124 3121 3118 3114 3112 3111 3114 3115 3116 3116 3116 3116 3115 3110 3110 3109 3108 3105 3102 3098 3099 3100 3100 3101 3103 3104 3105 3101 3104 3087 3105 3118 3122 3123 3126 3128 3131 3134 3136 3139 3142 3146 3147 3150 3153 3154 3157
3119 3121 3120 3117 3111 3111 3109 3109 3112 3114 3114 3114 3113 3112 3113 3108 3107 3105 3105 3101 3099 3096 3096 3096 3096 3096 3099 3101 3099 3098 3097 3097 3087 3109 3118 3122 3126 3127 3129 3133 3135 3138 3141 3144 3147 3150 3153 3155 3158
3115 3118 3115 3113 3111 3109 3109 3105 3109 3111 3112 3112 3110 3110 3112 3104 3105 3102 3100 3098 3095 3093 3092 3091 3092 3092 3093 3095 3095 3093 3093 3076 3084 3108 3115 3120 3122 3124 3126 3131 3134 3136 3140 3143 3148 3149 3152 3156 3158
3114 3116 3112 3111 3110 3107 3108 3103 3106 3108 3109 3107 3107 3107 3109 3102 3101 3099 3095 3095 3091 3088 3086 3086 3087 3089 3088 3089 3090 3089 3089 3081 3069 3102 3111 3116 3120 3123 3124 3128 3133 3136 3139 3143 3146 3148 3153 3156 3158
3113 3113 3107 3108 3107 3105 3103 3103 3104 3105 3105 3105 3105 3103 3102 3101 3098 3095 3092 3092 3088 3083 3081 3081 3083 3084 3084 3087 3087 3088 3088 3087 3083 3101 3109 3112 3115 3120 3122 3125 3131 3134 3137 3141 3143 3148 3152 3155 3157
3108 3107 3104 3106 3104 3102 3101 3103 3102 3104 3103 3102 3101 3101 3098 3097 3095 3092 3087 3087 3084 3080 3078 3078 3080 3081 3080 3081 3083 3085 3090 3086 3083 3089 3101 3105 3112 3115 3119 3119 3127 3132 3136 3140 3142 3147 3150 3154 3156
3103 3099 3103 3101 3101 3100 3100 3100 3099 3100 3100 3100 3100 3098 3093 3093 3092 3090 3085 3084 3082 3079 3077 3077 3077 3078 3078 3078 3080 3082 3085 3086 3089 3089 3098 3102 3108 3112 3114 3118 3124 3129 3134 3137 3141 3146 3150 3153 3155
3100 3099 3101 3100 3099 3098 3097 3097 3096 3097 3097 3096 3096 3092 3093 3091 3089 3086 3084 3081 3080 3079 3077 3076 3075 3075 3076 3076 3077 3078 3082 3084 3088 3085 3089 3099 3106 3110 3112 3116 3123 3127 3132 3136 3141 3145 3148 3151 3153
3093 3094 3096 3096 3096 3095 3094 3092 3092 3090 3091 3091 3091 3089 3087 3087 3086 3083 3081 3079 3077 3077 3076 3075 3072 3070 3070 3071 3073 3075 3074 3075 3079 3086 3089 3094 3102 3106 3113 3117 3123 3127 3131 3134 3140 3144 3147 3149 3151
3090 3090 3089 3090 3090 3090 3090 3088 3088 3085 3086 3086 3087 3085 3083 3083 3083 3080 3078 3077 3075 3075 3075 3073 3070 3067 3065 3065 3068 3068 3065 3067 3069 3077 3085 3094 3098 3105 3110 3112 3120 3125 3131 3134 3139 3142 3145 3148 3150
3086 3085 3083 3083 3084 3083 3085 3082 3081 3081 3080 3081 3083 3082 3080 3080 3079 3077 3074 3074 3073 3073 3073 3071 3068 3066 3064 3063 3064 3064 3063 3065 3068 3075 3082 3089 3095 3101 3104 3109 3117 3123 3129 3134 3137 3141 3144 3146 3148
3081 3080 3078 3077 3078 3078 3080 3075 3077 3076 3073 3077 3078 3078 3077 3076 3076 3074 3073 3071 3069 3071 3071 3070 3066 3064 3063 3062 3064 3065 3064 3066 3071 3074 3079 3086 3091 3097 3100 3107 3115 3122 3127 3132 3135 3139 3142 3144 3147
3073 3072 3072 3072 3072 3071 3071 3070 3072 3074 3072 3073 3074 3074 3074 3073 3073 3072 3071 3069 3067 3067 3068 3067 3066 3063 3061 3061 3062 3063 3066 3068 3069 3073 3078 3084 3088 3094 3099 3104 3112 3119 3125 3129 3133 3137 3140 3143 3146
3066 3064 3067 3067 3066 3064 3065 3065 3066 3070 3069 3068 3070 3070 3070 3070 3070 3069 3068 3067 3065 3064 3065 3064 3062 3060 3059 3059 3061 3063 3066 3067 3070 3074 3079 3085 3089 3094 3097 3104 3108 3115 3120 3125 3130 3134 3138 3141 3145
3064 3063 3060 3060 3061 3060 3059 3059 3062 3065 3065 3065 3064 3066 3067 3066 3066 3066 3065 3064 3063 3062 3062 3061 3060 3058 3055 3057 3061 3064 3067 3070 3071 3074 3078 3082 3086 3091 3095 3099 3109 3115 3119 3124 3129 3131 3135 3139 3142
3059 3060 3056 3056 3057 3056 3056 3054 3057 3058 3059 3060 3062 3059 3061 3062 3061 3061 3062 3061 3061 3061 3060 3060 3058 3057 3053 3055 3058 3063 3065 3068 3071 3073 3076 3081 3084 3087 3092 3099 3107 3113 3118 3121 3125 3128 3131 3136 3139
3051 3052 3053 3053 3053 3052 3052 3050 3050 3051 3052 3053 3054 3056 3058 3057 3056 3056 3058 3058 3058 3058 3058 3058 3057 3055 3054 3054 3056 3059 3061 3064 3067 3070 3074 3077 3081 3084 3088 3094 3102 3109 3113 3118 3122 3126 3129 3133 3136
3044 3048 3049 3050 3050 3049 3048 3041 3042 3043 3042 3043 3046 3049 3052 3054 3053 3051 3053 3055 3056 3055 3056 3057 3057 3055 3054 3054 3054 3057 3060 3062 3065 3069 3072 3075 3079 3082 3086 3091 3099 3105 3109 3114 3119 3123 3126 3129 3132
3036 3043 3047 3047 3046 3045 3041 3040 3036 3037 3038 3037 3040 3042 3045 3047 3051 3049 3048 3051 3052 3053 3054 3054 3055 3055 3054 3053 3054 3055 3057 3060 3063 3065 3068 3072 3076 3079 3083 3088 3094 3099 3104 3109 3114 3117 3120 3123 3126
3037 3040 3042 3042 3041 3033 3035 3037 3029 3032 3033 3033 3035 3038 3040 3041 3044 3047 3046 3048 3049 3050 3051 3052 3053 3054 3054 3054 3053 3054 3055 3057 3059 3062 3064 3068 3072 3076 3079 3084 3089 3094 3099 3103 3107 3110 3114 3118 3120
3031 3037 3039 3038 3028 3021 3029 3029 3023 3025 3026 3025 3031 3034 3036 3038 3039 3042 3043 3043 3045 3047 3049 3049 3051 3052 3053 3054 3054 3055 3055 3056 3058 3059 3062 3065 3067 3070 3073 3079 3084 3086 3093 3097 3101 3105 3108 3111 3112
3024 3029 3032 3025 3019 3019 3022 3015 3014 3018 3021 3024 3028 3030 3033 3034 3036 3039 3040 3039 3041 3043 3045 3046 3048 3049 3052 3053 3054 3054 3055 3055 3056 3058 3059 3061 3063 3068 3072 3074 3078 3081 3085 3090 3095 3099 3102 3105 3107
3020 3019 3024 3021 3025 3025 3010 3009 3011 3012 3017 3021 3026 3028 3030 3031 3034 3035 3037 3036 3037 3039 3041 3044 3045 3047 3049 3050 3051 3052 3052 3053 3055 3056 3057 3059 3061 3064 3067 3069 3072 3075 3079 3083 3087 3090 3094 3097 3101
3016 3019 3023 3025 3023 3021 3007 3003 3006 3011 3015 3020 3024 3026 3028 3031 3032 3033 3033 3033 3033 3034 3037 3040 3042 3044 3046 3048 3049 3050 3051 3052 3052 3053 3055 3056 3058 3059 3061 3062 3066 3070 3074 3078 3081 3082 3086 3089 3092
3013 3013 3016 3020 3020 3013 3006 3006 3007 3010 3014 3017 3019 3021 3025 3027 3029 3030 3031 3032 3031 3031 3033 3036 3039 3040 3041 3043 3046 3047 3048 3050 3051 3051 3052 3053 3055 3057 3059 3060 3062 3064 3067 3069 3071 3074 3078 3080 3083
3006 3008 3014 3016 3015 3013 3013 3005 3003 3007 3012 3013 3016 3019 3020 3022 3025 3026 3028 3029 3029 3028 3029 3031 3033 3035 3037 3039 3042 3044 3045 3046 3047 3049 3049 3051 3052 3054 3055 3056 3058 3060 3061 3063 3064 3066 3069 3070 3074